• Em Portugal
  • Lista de países
  • Para 7 dias
  • Temperatura da água
  • Mapas de satélite
  • Mapa do tempo
  • Widgets de tempo
  • user-avatar
    Iniciar Sessão

    Previsão horária em Leszkiemie

    Hoje, 16 Agosto, Quinta-feira

    Tempo Temperatura Precipitação Vento Pressão Humidade
    00:00 +15°C° 0 mm 2 m/s 739 mmHg 97%
    01:00 +14°C° 0 mm 2 m/s 739 mmHg 98%
    02:00 +14°C° 0 mm 2 m/s 739 mmHg 98%
    03:00 +14°C° 0 mm 2 m/s 739 mmHg 98%
    04:00 +14°C° 0 mm 2 m/s 739 mmHg 98%
    05:00 +13°C° 0 mm 2 m/s 740 mmHg 98%
    06:00 +15°C° 0 mm 2 m/s 740 mmHg 95%
    07:00 +16°C° 0 mm 2 m/s 740 mmHg 91%
    08:00 +17°C° 0 mm 2 m/s 741 mmHg 87%
    09:00 +18°C° 0 mm 2 m/s 741 mmHg 81%
    10:00 +21°C° 0 mm 1 m/s 741 mmHg 75%
    11:00 +22°C° 0 mm 1 m/s 741 mmHg 68%
    12:00 +23°C° 0,1 mm 1 m/s 741 mmHg 65%
    13:00 +23°C° 0,1 mm 1 m/s 741 mmHg 62%
    14:00 +24°C° 0,1 mm 1 m/s 741 mmHg 59%
    15:00 +24°C° 0 mm 1 m/s 741 mmHg 60%
    16:00 +24°C° 0 mm 1 m/s 741 mmHg 60%
    17:00 +24°C° 0 mm 1 m/s 741 mmHg 61%
    18:00 +22°C° 0 mm 1 m/s 741 mmHg 67%
    19:00 +21°C° 0 mm 1 m/s 741 mmHg 73%
    20:00 +19°C° 0 mm 1 m/s 740 mmHg 79%
    21:00 +18°C° 0 mm 1 m/s 741 mmHg 82%
    22:00 +18°C° 0 mm 1 m/s 741 mmHg 84%
    23:00 +16°C° 0 mm 1 m/s 741 mmHg 87%

    Amanhã, 17 Agosto, Sexta-feira

    Tempo Temperatura Precipitação Vento Pressão Humidade
    00:00 +16°C° 0 mm 1 m/s 741 mmHg 88%
    01:00 +15°C° 0 mm 1 m/s 741 mmHg 89%
    02:00 +15°C° 0 mm 1 m/s 741 mmHg 91%
    03:00 +15°C° 0 mm 1 m/s 741 mmHg 91%
    04:00 +15°C° 0 mm 1 m/s 741 mmHg 92%
    05:00 +14°C° 0 mm 1 m/s 741 mmHg 93%
    06:00 +16°C° 0 mm 1 m/s 741 mmHg 89%
    07:00 +17°C° 0 mm 2 m/s 741 mmHg 85%
    08:00 +19°C° 0 mm 2 m/s 741 mmHg 81%
    09:00 +20°C° 0 mm 2 m/s 741 mmHg 75%
    10:00 +21°C° 0 mm 2 m/s 741 mmHg 69%
    11:00 +24°C° 0 mm 2 m/s 741 mmHg 64%
    12:00 +24°C° 0 mm 2 m/s 741 mmHg 61%
    13:00 +25°C° 0 mm 2 m/s 741 mmHg 59%
    14:00 +25°C° 0 mm 2 m/s 740 mmHg 56%
    15:00 +25°C° 0 mm 2 m/s 740 mmHg 56%
    16:00 +25°C° 0 mm 1 m/s 740 mmHg 57%
    17:00 +25°C° 0 mm 1 m/s 740 mmHg 57%
    18:00 +24°C° 0 mm 1 m/s 740 mmHg 63%
    19:00 +22°C° 0 mm 1 m/s 739 mmHg 69%
    20:00 +18°C° 0 mm 0 m/s 739 mmHg 76%
    21:00 +17°C° 0 mm 0 m/s 739 mmHg 78%
    22:00 +17°C° 0 mm 0 m/s 739 mmHg 81%
    23:00 +16°C° 0 mm 0 m/s 739 mmHg 83%

    Depois de amanhã, 18 Agosto, Sábado

    Tempo Temperatura Precipitação Vento Pressão Humidade
    00:00 +16°C° 0 mm 0 m/s 739 mmHg 84%
    01:00 +15°C° 0 mm 0 m/s 739 mmHg 85%
    02:00 +15°C° 0 mm 0 m/s 739 mmHg 86%
    03:00 +15°C° 0 mm 0 m/s 739 mmHg 87%
    04:00 +16°C° 0 mm 1 m/s 739 mmHg 87%
    05:00 +15°C° 0 mm 1 m/s 739 mmHg 88%
    06:00 +18°C° 0 mm 1 m/s 740 mmHg 83%
    07:00 +20°C° 0 mm 1 m/s 740 mmHg 79%
    08:00 +21°C° 0 mm 1 m/s 740 mmHg 74%
    09:00 +23°C° 0 mm 1 m/s 740 mmHg 69%
    10:00 +22°C° 0 mm 0 m/s 740 mmHg 63%
    11:00 +24°C° 0 mm 0 m/s 740 mmHg 57%
    12:00 +26°C° 0 mm 1 m/s 740 mmHg 55%
    13:00 +27°C° 0 mm 1 m/s 740 mmHg 52%
    14:00 +27°C° 0 mm 1 m/s 740 mmHg 50%
    15:00 +27°C° 0 mm 1 m/s 739 mmHg 52%
    16:00 +26°C° 0 mm 1 m/s 739 mmHg 55%
    17:00 +26°C° 0 mm 1 m/s 739 mmHg 58%
    18:00 +24°C° 0,1 mm 1 m/s 739 mmHg 64%
    19:00 +22°C° 0,1 mm 1 m/s 739 mmHg 70%
    20:00 +21°C° 0,1 mm 1 m/s 739 mmHg 77%
    21:00 +20°C° 0,2 mm 1 m/s 739 mmHg 80%
    22:00 +19°C° 0,2 mm 1 m/s 740 mmHg 83%
    23:00 +19°C° 0,2 mm 1 m/s 740 mmHg 87%

    19 Agosto, Domingo

    Tempo Temperatura Precipitação Vento Pressão Humidade
    00:00 +17°C° 0,2 mm 2 m/s 740 mmHg 90%
    01:00 +17°C° 0,2 mm 2 m/s 740 mmHg 92%
    02:00 +16°C° 0,2 mm 2 m/s 740 mmHg 95%
    03:00 +16°C° 0 mm 2 m/s 740 mmHg 96%
    04:00 +15°C° 0 mm 2 m/s 740 mmHg 97%
    05:00 +15°C° 0 mm 2 m/s 740 mmHg 97%
    06:00 +15°C° 0 mm 2 m/s 740 mmHg 93%
    07:00 +16°C° 0 mm 3 m/s 740 mmHg 89%
    08:00 +17°C° 0 mm 3 m/s 741 mmHg 85%
    09:00 +18°C° 0 mm 3 m/s 741 mmHg 78%
    10:00 +19°C° 0 mm 3 m/s 741 mmHg 70%
    11:00 +21°C° 0 mm 3 m/s 741 mmHg 63%
    12:00 +21°C° 0 mm 4 m/s 741 mmHg 63%
    13:00 +22°C° 0 mm 4 m/s 740 mmHg 63%
    14:00 +22°C° 0 mm 4 m/s 740 mmHg 62%
    15:00 +22°C° 0 mm 4 m/s 740 mmHg 65%
    16:00 +22°C° 0 mm 4 m/s 740 mmHg 67%
    17:00 +22°C° 0 mm 4 m/s 740 mmHg 69%
    18:00 +20°C° 0 mm 3 m/s 740 mmHg 75%
    19:00 +19°C° 0 mm 3 m/s 740 mmHg 81%
    20:00 +17°C° 0 mm 2 m/s 740 mmHg 87%
    21:00 +17°C° 0 mm 2 m/s 740 mmHg 90%
    22:00 +16°C° 0 mm 2 m/s 740 mmHg 92%
    23:00 +15°C° 0 mm 2 m/s 740 mmHg 95%

    20 Agosto, Segunda-feira

    Tempo Temperatura Precipitação Vento Pressão Humidade
    00:00 +15°C° 0 mm 2 m/s 740 mmHg 95%
    01:00 +14°C° 0 mm 2 m/s 740 mmHg 96%
    02:00 +14°C° 0 mm 2 m/s 740 mmHg 96%
    03:00 +14°C° 0 mm 2 m/s 740 mmHg 96%
    04:00 +14°C° 0 mm 2 m/s 740 mmHg 97%
    05:00 +14°C° 0 mm 2 m/s 740 mmHg 97%
    06:00 +15°C° 0 mm 2 m/s 740 mmHg 93%
    07:00 +16°C° 0 mm 2 m/s 740 mmHg 89%
    08:00 +17°C° 0 mm 2 m/s 740 mmHg 86%
    09:00 +19°C° 0 mm 2 m/s 740 mmHg 79%
    10:00 +20°C° 0 mm 2 m/s 740 mmHg 73%
    11:00 +21°C° 0 mm 3 m/s 740 mmHg 66%
    12:00 +23°C° 0 mm 2 m/s 740 mmHg 64%
    13:00 +23°C° 0 mm 2 m/s 740 mmHg 62%
    14:00 +24°C° 0 mm 2 m/s 740 mmHg 59%
    15:00 +24°C° 0,1 mm 2 m/s 740 mmHg 61%
    16:00 +24°C° 0,1 mm 2 m/s 740 mmHg 62%
    17:00 +24°C° 0,1 mm 1 m/s 739 mmHg 64%
    18:00 +23°C° 0,1 mm 1 m/s 739 mmHg 69%
    19:00 +21°C° 0,1 mm 1 m/s 739 mmHg 75%
    20:00 +20°C° 0,1 mm 1 m/s 739 mmHg 80%
    21:00 +19°C° 0,1 mm 2 m/s 739 mmHg 82%
    22:00 +18°C° 0,1 mm 2 m/s 739 mmHg 83%
    23:00 +18°C° 0,1 mm 3 m/s 738 mmHg 85%

    21 Agosto, Terça-feira

    Tempo Temperatura Precipitação Vento Pressão Humidade
    00:00 +18°C° 0,2 mm 3 m/s 738 mmHg 86%
    01:00 +17°C° 0,2 mm 3 m/s 738 mmHg 86%
    02:00 +17°C° 0,2 mm 3 m/s 738 mmHg 87%
    03:00 +17°C° 0,1 mm 3 m/s 738 mmHg 87%
    04:00 +17°C° 0,1 mm 3 m/s 738 mmHg 87%
    05:00 +16°C° 0,1 mm 3 m/s 738 mmHg 88%
    06:00 +17°C° 0,1 mm 3 m/s 738 mmHg 87%
    07:00 +17°C° 0,1 mm 3 m/s 738 mmHg 86%
    08:00 +18°C° 0,1 mm 3 m/s 738 mmHg 86%
    09:00 +19°C° 0 mm 3 m/s 738 mmHg 81%
    10:00 +21°C° 0 mm 3 m/s 738 mmHg 76%
    11:00 +24°C° 0 mm 3 m/s 738 mmHg 71%
    12:00 +24°C° 0,2 mm 3 m/s 738 mmHg 70%
    13:00 +24°C° 0,2 mm 3 m/s 738 mmHg 70%
    14:00 +25°C° 0,2 mm 4 m/s 738 mmHg 70%
    15:00 +24°C° 0,2 mm 3 m/s 738 mmHg 71%
    16:00 +24°C° 0,2 mm 3 m/s 738 mmHg 73%
    17:00 +24°C° 0,2 mm 3 m/s 738 mmHg 74%
    18:00 +21°C° 0 mm 3 m/s 738 mmHg 80%
    19:00 +20°C° 0 mm 2 m/s 738 mmHg 85%
    20:00 +18°C° 0 mm 2 m/s 738 mmHg 91%
    21:00 +19°C° 0 mm 1 m/s 738 mmHg 91%
    22:00 +18°C° 0 mm 1 m/s 738 mmHg 92%
    23:00 +16°C° 0 mm 1 m/s 738 mmHg 93%
    Mostrar mais